Weather in Big Sur

United States     35°58′17″N   121°27′10″W
temp.,
°C
wind,
m/s
gust,
m/s
humid.,
%
clouds,
%
prec.,
mm/h
press.,
hPa
HPBL,
m
25 may, wed
wed2523:00+18e12445 0.0 101021
02:00+18ene123718 0.0 100915
05:00+16e114340 0.0 101017
08:00+18s22497 0.0 101169
11:00+19ssw335845 0.1 1012231
14:00+18ssw226366 0.1 1012250
17:00+17sw126489 0.1 1011137
20:00+13se127997 0.0 101239
26 may, thu
thu2623:00+14s117275 0.0 101314
02:00+13se227719 0.0 101220
05:00+11ese228840 0.0 101224
08:00+12sse128745 0.1 101496
11:00+15s337539 0.1 1014195
14:00+14wsw2277100 0.0 1015188
17:00+14ssw0179100 0.1 1014147
20:00+12ese118959 0.0 101548
27 may, fri
fri2723:00+11nnw119241 0.0 101716
02:00+11e118280 0.0 101510
05:00+10nne119063 0.0 101610
08:00+13w1178100 0.0 101694
11:00+14w337488 0.0 1017287
14:00+14wnw3474100 0.1 1017323
17:00+15w237480 0.1 1015205
20:00+14nw117172 0.0 101422
28 may, sat
sat2823:00+14n1163100 0.0 101515
02:00+13nne11639 0.0 101416
05:00+13ene22665 0.0 101416
08:00+15sw01655 0.0 1014158
11:00+15wnw457240 0.0 1014448
14:00+15wnw477057 0.0 1014391
17:00+15wnw59706 0.0 1013382
20:00+13nw57822 0.0 101291
29 may, sun
sun2923:00+12n34880 0.0 101348
02:00+10n336210 0.0 101253
05:00+9n335311 0.0 101261
08:00+12nw23470 0.0 1013197
11:00+15wnw88430 0.0 1012820
14:00+15wnw1010440 0.0 1011921
17:00+16nw1010460 0.0 1010652
20:00+11nw89670 0.0 1011196